Current weather by "City, St" or "zip code"  
 

Current Conditions: Murray Kyle Oakley Field, KY, KY

Fair


37.0 F

Last Updated on Oct 31 2020, 12:55 am CDT
Humidity: 100%
Wind Speed: N 0.0 mph
Barometer 30.32 in
Dewpoint: 37.4 F
Visibility: 10.00 mi
Precip: --
Heat Index: NA
Wind Chill: NA
Current conditions at:

Murray Kyle Oakley Field, KY, KY (KCEY)

Lat: 36.6646 Lon: 88.3728

Local Radar Image active severe weather and emergency alerts image image weather storm and storm spotter reports image weather observation monitoring service image
Local
Radar
Active
Alerts
Storm Reports Obs
Monitoring

Sign-up For Email & Text Message Weather Alert Notification Services



Advertise Here

Observation History for Murray Kyle Oakley Field, KY, KY


Time Wind
(mph)
Vis
(mi)
Weather Precip (in) Temperature (F) Relative
Humidity
Wind
Chill
(F)
Heat
Index
(F)
Pressure
Air Dwpt altimeter
(in)
sea level
(mb)
Rmks
12:55 am CDT N 0.0 10.00 Fair -- 37.0 37.4 100% NA NA 30.32 M
11:55 pm CDT N 0.0 10.00 Fair -- 39.0 37.4 93% NA NA 30.32 M
10:55 pm CDT NE 4.6 10.00 Fair -- 41.0 37.4 87% 38 NA 30.31 M
9:55 pm CDT N 0.0 10.00 Fair -- 41.0 37.4 87% NA NA 30.31 M
8:55 pm CDT NE 3.5 10.00 Fair -- 41.0 37.4 87% NA NA 30.30 M
7:55 pm CDT N 0.0 10.00 Fair -- 45.0 37.4 76% NA NA 30.29 M
6:55 pm CDT E 3.5 10.00 Fair -- 45.0 37.4 76% NA NA 30.28 M
5:55 pm CDT NE 4.6 10.00 Fair -- 50.0 33.8 54% 48 NA 30.28 M
4:55 pm CDT NE 6.9 10.00 Fair -- 54.0 33.8 47% 52 NA 30.28 M
4:35 pm CDT NE 8.1 10.00 Fair -- 54.0 35.6 51% 52 NA 30.28 M
3:55 pm CDT NE 6.9 10.00 Fair -- 54.0 35.6 51% 52 NA 30.27 M
2:55 pm CDT N 8.1 10.00 Fair -- 54.0 35.6 51% 52 NA 30.28 M
1:55 pm CDT N 10.4 10.00 Fair -- 52.0 33.8 50% 48 NA 30.29 M
1:35 pm CDT N 8.1 10.00 Fair -- 50.0 33.8 54% 47 NA 30.29 M
12:55 pm CDT NW 6.9 10.00 Fair -- 50.0 33.8 54% 47 NA 30.31 M
11:55 am CDT NW 9.2 10.00 Fair -- 48.0 32.0 54% 44 NA 30.33 M
10:55 am CDT N 11.5 10.00 Fair -- 46.0 33.8 62% 41 NA 30.33 M
10:35 am CDT N 8.1 10.00 Fair -- 46.0 35.6 66% 42 NA 30.33 M
9:55 am CDT N 10.4 10.00 Fair -- 45.0 35.6 71% 40 NA 30.32 M
8:55 am CDT NW 8.1 10.00 Fair -- 41.0 37.4 87% 36 NA 30.31 M
7:55 am CDT NW 4.6 3.00 A Few Clouds -- 37.0 37.4 100% 33 NA 30.27 M
7:35 am CDT W 4.6 3.00 A Few Clouds -- 37.0 35.6 93% 33 NA 30.26 M
6:55 am CDT NW 6.9 4.00 NULL -- 37.0 35.6 93% 32 NA 30.23 M
5:55 am CDT W 6.9 5.00 Fair -- 37.0 37.4 100% 32 NA 30.20 M

Regional Weather Observation


Paducah, Barkley Regional Airport, KY (KPAH)

Fair
38.0 F

Metropolis Municipal Airport, IL (KM30)

Fair
79.0 F

Union City - Everett-Stewart Regional Airport, TN (KUCY)

Fair
43.0 F

Cairo Regional Airport, IL (KCIR)

Fair
39.0 F

Harrisburg-Raleigh Airport, IL (KHSB)

Fog/Mist
36.0 F

Fort Campbell U. S. Army Airfield, KY (KHOP)

Fair
40.0 F